DW3857 Weather Reports


time (UTC)temp
F
wind
direction
speed
knots
gust
knots
rain 1hr
in
rain 24hr
in
rain mn
in
humidity
%
barometer
mb
20260506133046 78 0.0 0.0 0.00 0.00 0.00 37 1002.5
20260506131539 78 0.0 0.0 0.00 0.00 0.00 37 1002.9
20260506130039 77 0.0 0.0 0.00 0.00 0.00 38 1003.1
20260506124533 76 0.0 0.0 0.00 0.00 0.00 38 1003.3
20260506123032 76 0.0 0.0 0.00 0.00 0.00 39 1003.4
20260506121531 75 0.0 0.0 0.00 0.00 0.00 38 1003.7
20260506120034 75 0.0 0.0 0.00 0.00 0.00 39 1003.7
20260506114529 74 0.0 0.0 0.00 0.00 0.00 43 1003.8
20260506113029 75 0.0 0.0 0.00 0.00 0.00 43 1004.2
20260506111530 75 0.0 0.0 0.00 0.00 0.00 43 1004.4
20260506110027 75 0.0 0.0 0.00 0.00 0.00 43 1004.7
20260506104525 75 0.0 0.0 0.00 0.00 0.00 45 1004.9
20260506103025 75 0.0 0.0 0.00 0.00 0.00 44 1005.1
20260506101525 74 0.0 0.0 0.00 0.00 0.00 46 1005.4
20260506100025 74 0.0 0.0 0.00 0.00 0.00 46 1005.6
20260506094522 74 0.0 0.0 0.00 0.00 0.00 45 1005.7
20260506093021 74 0.0 0.0 0.00 0.00 0.00 44 1005.8
20260506091520 72 0.0 0.0 0.00 0.00 0.00 45 1005.9
20260506090023 73 0.0 0.0 0.00 0.00 0.00 45 1006.0
20260506084521 72 0.0 0.0 0.00 0.00 0.00 49 1006.0
20260506083019 71 0.0 0.0 0.00 0.00 0.00 49 1006.0
20260506081510 69 0.0 0.0 0.00 0.00 0.00 52 1006.2
20260506073006 68 0.0 0.0 0.00 0.00 0.00 55 1006.3
20260506071503 67 0.0 0.0 0.00 0.00 0.00 56 1006.4
20260506061553 64 0.0 0.0 0.00 0.00 0.00 60 1006.7
20260506050104 62 0.0 0.0 0.00 0.00 0.00 67 1006.8
20260506044547 61 0.0 0.0 0.00 0.00 0.00 69 1006.6
20260506043045 60 0.0 0.0 0.00 0.00 0.00 70 1006.5
20260506041557 60 0.0 0.0 0.00 0.00 0.00 71 1006.4
20260506040043 60 0.0 0.0 0.00 0.00 0.00 72 1006.3
20260506034550 60 0.0 0.0 0.00 0.00 0.00 71 1006.2
20260506033041 60 0.0 0.0 0.00 0.00 0.00 71 1006.2
20260506031541 61 0.0 0.0 0.00 0.00 0.00 70 1006.1
20260506030041 61 0.0 0.0 0.00 0.00 0.00 70 1006.1
20260506024539 62 0.0 0.0 0.00 0.00 0.00 70 1006.2
20260506023039 62 0.0 0.0 0.00 0.00 0.00 69 1006.1
20260506021538 62 0.0 0.0 0.00 0.00 0.00 68 1006.0
20260506020040 62 0.0 0.0 0.00 0.00 0.00 68 1005.8
20260506014535 63 0.0 0.0 0.00 0.00 0.00 67 1005.7
20260506013048 63 0.0 0.0 0.00 0.00 0.00 66 1005.6
20260506011541 63 0.0 0.0 0.00 0.00 0.00 65 1005.6
20260506010035 64 0.0 0.0 0.00 0.00 0.00 65 1005.4
20260506004529 63 0.0 0.0 0.00 0.00 0.00 66 1005.2
20260506003027 60 0.0 0.0 0.00 0.00 0.00 71 1005.1
20260506001524 59 0.0 0.0 0.00 0.00 0.00 71 1004.9
20260506000023 58 0.0 0.0 0.00 0.00 0.00 73 1004.8
20260505234522 58 0.0 0.0 0.00 0.00 0.00 71 1004.8
20260505233026 58 0.0 0.0 0.00 0.00 0.00 71 1004.5
20260505231519 58 0.0 0.0 0.00 0.00 0.00 72 1004.5
20260505230017 57 0.0 0.0 0.00 0.00 0.00 72 1004.4
20260505224515 57 0.0 0.0 0.00 0.00 0.00 71 1004.1
20260505223011 58 0.0 0.0 0.00 0.00 0.00 69 1004.0
20260505221509 59 0.0 0.0 0.00 0.00 0.00 67 1003.8
20260505220013 59 0.0 0.0 0.00 0.00 0.00 66 1003.6
20260505214503 60 0.0 0.0 0.00 0.00 0.00 64 1003.5
20260505213002 61 0.0 0.0 0.00 0.00 0.00 62 1003.4
20260505211502 62 0.0 0.0 0.00 0.00 0.00 60 1003.4
20260505210002 63 0.0 0.0 0.00 0.00 0.00 57 1003.2
20260505204605 64 0.0 0.0 0.00 0.00 0.00 55 1003.0
20260505203108 65 0.0 0.0 0.00 0.00 0.00 54 1002.6
20260505201559 65 0.0 0.0 0.00 0.00 0.00 53 1002.4
20260505200110 65 0.0 0.0 0.00 0.00 0.00 53 1002.3
20260505194558 66 0.0 0.0 0.00 0.00 0.00 52 1002.4
20260505193104 66 0.0 0.0 0.00 0.00 0.00 52 1002.2
20260505191608 66 0.0 0.0 0.00 0.00 0.00 51 1002.2
20260505190057 67 0.0 0.0 0.00 0.00 0.00 51 1002.3
20260505184558 67 0.0 0.0 0.00 0.00 0.00 50 1002.3
20260505183056 67 0.0 0.0 0.00 0.00 0.00 49 1002.1
20260505181558 68 0.0 0.0 0.00 0.00 0.00 48 1002.1
20260505180054 68 0.0 0.0 0.00 0.00 0.00 47 1002.2
20260505174602 69 0.0 0.0 0.00 0.00 0.00 45 1002.1
20260505173056 70 0.0 0.0 0.00 0.00 0.00 44 1002.2
20260505171553 72 0.0 0.0 0.00 0.00 0.00 43 1002.2
20260505170052 73 0.0 0.0 0.00 0.00 0.00 41 1002.2
20260505164551 74 0.0 0.0 0.00 0.00 0.00 41 1002.3
20260505163053 73 0.0 0.0 0.00 0.00 0.00 41 1002.4
20260505161550 73 0.0 0.0 0.00 0.00 0.00 41 1002.4
20260505153048 75 0.0 0.0 0.00 0.00 0.00 38 1002.6
20260505151548 77 0.0 0.0 0.00 0.00 0.00 37 1002.6